<?xml version="1.0"?>
<gpx xmlns="http://www.topografix.com/GPX/1/1" xmlns:xsi="http://www.w3.org/2001/XMLSchema-instance" version="1.1" creator="GPX RubyGem 1.0.0 -- http://dougfales.github.io/gpx/" xsi:schemaLocation="http://www.topografix.com/GPX/1/1 http://www.topografix.com/GPX/1/1/gpx.xsd">
  <metadata>
    <name/>
    <time>2026-05-10T11:55:02+00:00</time>
    <bound minlat="90.0" minlon="180.0" maxlat="-90.0" maxlon="-180.0"/>
  </metadata>
  <trk>
    <name/>
    <trkseg>
      <trkpt lat="49.099411" lon="13.159314">
        <time>1970-01-01T00:00:00+00:00</time>
        <ele>953.0</ele>
      </trkpt>
      <trkpt lat="49.099321" lon="13.159221">
        <time>1970-01-01T00:00:00+00:00</time>
        <ele>950.0</ele>
      </trkpt>
      <trkpt lat="49.099157" lon="13.159081">
        <time>1970-01-01T00:00:00+00:00</time>
        <ele>944.0</ele>
      </trkpt>
      <trkpt lat="49.099085" lon="13.159051">
        <time>1970-01-01T00:00:00+00:00</time>
        <ele>941.0</ele>
      </trkpt>
      <trkpt lat="49.099083" lon="13.158798">
        <time>1970-01-01T00:00:00+00:00</time>
        <ele>940.0</ele>
      </trkpt>
      <trkpt lat="49.099315" lon="13.158065">
        <time>1970-01-01T00:00:00+00:00</time>
        <ele>959.0</ele>
      </trkpt>
      <trkpt lat="49.09955" lon="13.157191">
        <time>1970-01-01T00:00:00+00:00</time>
        <ele>966.0</ele>
      </trkpt>
      <trkpt lat="49.099944" lon="13.156745">
        <time>1970-01-01T00:00:00+00:00</time>
        <ele>971.0</ele>
      </trkpt>
      <trkpt lat="49.100068" lon="13.156575">
        <time>1970-01-01T00:00:00+00:00</time>
        <ele>970.0</ele>
      </trkpt>
      <trkpt lat="49.10021" lon="13.156311">
        <time>1970-01-01T00:00:00+00:00</time>
        <ele>969.0</ele>
      </trkpt>
      <trkpt lat="49.100396" lon="13.155866">
        <time>1970-01-01T00:00:00+00:00</time>
        <ele>972.0</ele>
      </trkpt>
      <trkpt lat="49.100725" lon="13.155007">
        <time>1970-01-01T00:00:00+00:00</time>
        <ele>988.0</ele>
      </trkpt>
      <trkpt lat="49.100843" lon="13.154529">
        <time>1970-01-01T00:00:00+00:00</time>
        <ele>990.0</ele>
      </trkpt>
      <trkpt lat="49.101003" lon="13.1541">
        <time>1970-01-01T00:00:00+00:00</time>
        <ele>988.0</ele>
      </trkpt>
      <trkpt lat="49.101321" lon="13.153353">
        <time>1970-01-01T00:00:00+00:00</time>
        <ele>987.0</ele>
      </trkpt>
      <trkpt lat="49.101485" lon="13.15291">
        <time>1970-01-01T00:00:00+00:00</time>
        <ele>989.0</ele>
      </trkpt>
      <trkpt lat="49.101742" lon="13.151905">
        <time>1970-01-01T00:00:00+00:00</time>
        <ele>1000.0</ele>
      </trkpt>
      <trkpt lat="49.101849" lon="13.15151">
        <time>1970-01-01T00:00:00+00:00</time>
        <ele>1001.0</ele>
      </trkpt>
      <trkpt lat="49.101901" lon="13.151166">
        <time>1970-01-01T00:00:00+00:00</time>
        <ele>1003.0</ele>
      </trkpt>
      <trkpt lat="49.102018" lon="13.150366">
        <time>1970-01-01T00:00:00+00:00</time>
        <ele>1013.0</ele>
      </trkpt>
      <trkpt lat="49.102098" lon="13.150154">
        <time>1970-01-01T00:00:00+00:00</time>
        <ele>1013.0</ele>
      </trkpt>
      <trkpt lat="49.102309" lon="13.149843">
        <time>1970-01-01T00:00:00+00:00</time>
        <ele>1011.0</ele>
      </trkpt>
      <trkpt lat="49.102569" lon="13.149261">
        <time>1970-01-01T00:00:00+00:00</time>
        <ele>1018.0</ele>
      </trkpt>
      <trkpt lat="49.102662" lon="13.149133">
        <time>1970-01-01T00:00:00+00:00</time>
        <ele>1022.0</ele>
      </trkpt>
      <trkpt lat="49.102798" lon="13.14905">
        <time>1970-01-01T00:00:00+00:00</time>
        <ele>1027.0</ele>
      </trkpt>
      <trkpt lat="49.102907" lon="13.149039">
        <time>1970-01-01T00:00:00+00:00</time>
        <ele>1031.0</ele>
      </trkpt>
      <trkpt lat="49.103007" lon="13.149065">
        <time>1970-01-01T00:00:00+00:00</time>
        <ele>1035.0</ele>
      </trkpt>
      <trkpt lat="49.103132" lon="13.149231">
        <time>1970-01-01T00:00:00+00:00</time>
        <ele>1038.0</ele>
      </trkpt>
      <trkpt lat="49.103212" lon="13.149456">
        <time>1970-01-01T00:00:00+00:00</time>
        <ele>1041.0</ele>
      </trkpt>
      <trkpt lat="49.10338" lon="13.150153">
        <time>1970-01-01T00:00:00+00:00</time>
        <ele>1048.0</ele>
      </trkpt>
      <trkpt lat="49.103507" lon="13.150831">
        <time>1970-01-01T00:00:00+00:00</time>
        <ele>1055.0</ele>
      </trkpt>
      <trkpt lat="49.103686" lon="13.151515">
        <time>1970-01-01T00:00:00+00:00</time>
        <ele>1056.0</ele>
      </trkpt>
      <trkpt lat="49.103804" lon="13.151874">
        <time>1970-01-01T00:00:00+00:00</time>
        <ele>1059.0</ele>
      </trkpt>
      <trkpt lat="49.103962" lon="13.152216">
        <time>1970-01-01T00:00:00+00:00</time>
        <ele>1061.0</ele>
      </trkpt>
      <trkpt lat="49.104233" lon="13.152608">
        <time>1970-01-01T00:00:00+00:00</time>
        <ele>1065.0</ele>
      </trkpt>
      <trkpt lat="49.104576" lon="13.152775">
        <time>1970-01-01T00:00:00+00:00</time>
        <ele>1074.0</ele>
      </trkpt>
      <trkpt lat="49.104928" lon="13.152892">
        <time>1970-01-01T00:00:00+00:00</time>
        <ele>1079.0</ele>
      </trkpt>
      <trkpt lat="49.105545" lon="13.153272">
        <time>1970-01-01T00:00:00+00:00</time>
        <ele>1088.0</ele>
      </trkpt>
      <trkpt lat="49.105908" lon="13.153576">
        <time>1970-01-01T00:00:00+00:00</time>
        <ele>1087.0</ele>
      </trkpt>
      <trkpt lat="49.106263" lon="13.15369">
        <time>1970-01-01T00:00:00+00:00</time>
        <ele>1093.0</ele>
      </trkpt>
      <trkpt lat="49.106585" lon="13.153618">
        <time>1970-01-01T00:00:00+00:00</time>
        <ele>1099.0</ele>
      </trkpt>
      <trkpt lat="49.106803" lon="13.153525">
        <time>1970-01-01T00:00:00+00:00</time>
        <ele>1102.0</ele>
      </trkpt>
      <trkpt lat="49.107054" lon="13.15327">
        <time>1970-01-01T00:00:00+00:00</time>
        <ele>1109.0</ele>
      </trkpt>
      <trkpt lat="49.107317" lon="13.152911">
        <time>1970-01-01T00:00:00+00:00</time>
        <ele>1113.0</ele>
      </trkpt>
      <trkpt lat="49.107621" lon="13.152585">
        <time>1970-01-01T00:00:00+00:00</time>
        <ele>1116.0</ele>
      </trkpt>
      <trkpt lat="49.107678" lon="13.152489">
        <time>1970-01-01T00:00:00+00:00</time>
        <ele>1118.0</ele>
      </trkpt>
      <trkpt lat="49.108178" lon="13.152024">
        <time>1970-01-01T00:00:00+00:00</time>
        <ele>1127.0</ele>
      </trkpt>
      <trkpt lat="49.108278" lon="13.151753">
        <time>1970-01-01T00:00:00+00:00</time>
        <ele>1133.0</ele>
      </trkpt>
      <trkpt lat="49.108379" lon="13.15161">
        <time>1970-01-01T00:00:00+00:00</time>
        <ele>1133.0</ele>
      </trkpt>
      <trkpt lat="49.108462" lon="13.151446">
        <time>1970-01-01T00:00:00+00:00</time>
        <ele>1134.0</ele>
      </trkpt>
      <trkpt lat="49.108748" lon="13.151208">
        <time>1970-01-01T00:00:00+00:00</time>
        <ele>1138.0</ele>
      </trkpt>
      <trkpt lat="49.108895" lon="13.15115">
        <time>1970-01-01T00:00:00+00:00</time>
        <ele>1139.0</ele>
      </trkpt>
      <trkpt lat="49.109151" lon="13.150877">
        <time>1970-01-01T00:00:00+00:00</time>
        <ele>1145.0</ele>
      </trkpt>
      <trkpt lat="49.109321" lon="13.150756">
        <time>1970-01-01T00:00:00+00:00</time>
        <ele>1145.0</ele>
      </trkpt>
      <trkpt lat="49.10944" lon="13.150607">
        <time>1970-01-01T00:00:00+00:00</time>
        <ele>1146.0</ele>
      </trkpt>
      <trkpt lat="49.109805" lon="13.150347">
        <time>1970-01-01T00:00:00+00:00</time>
        <ele>1148.0</ele>
      </trkpt>
      <trkpt lat="49.109855" lon="13.150239">
        <time>1970-01-01T00:00:00+00:00</time>
        <ele>1150.0</ele>
      </trkpt>
      <trkpt lat="49.10994" lon="13.150178">
        <time>1970-01-01T00:00:00+00:00</time>
        <ele>1149.0</ele>
      </trkpt>
      <trkpt lat="49.109952" lon="13.150023">
        <time>1970-01-01T00:00:00+00:00</time>
        <ele>1152.0</ele>
      </trkpt>
      <trkpt lat="49.110015" lon="13.149764">
        <time>1970-01-01T00:00:00+00:00</time>
        <ele>1155.0</ele>
      </trkpt>
      <trkpt lat="49.11015" lon="13.14943">
        <time>1970-01-01T00:00:00+00:00</time>
        <ele>1159.0</ele>
      </trkpt>
      <trkpt lat="49.110281" lon="13.148838">
        <time>1970-01-01T00:00:00+00:00</time>
        <ele>1165.0</ele>
      </trkpt>
      <trkpt lat="49.110292" lon="13.148736">
        <time>1970-01-01T00:00:00+00:00</time>
        <ele>1167.0</ele>
      </trkpt>
      <trkpt lat="49.110227" lon="13.148184">
        <time>1970-01-01T00:00:00+00:00</time>
        <ele>1176.0</ele>
      </trkpt>
      <trkpt lat="49.110229" lon="13.148043">
        <time>1970-01-01T00:00:00+00:00</time>
        <ele>1178.0</ele>
      </trkpt>
      <trkpt lat="49.110246" lon="13.147862">
        <time>1970-01-01T00:00:00+00:00</time>
        <ele>1179.0</ele>
      </trkpt>
      <trkpt lat="49.11032" lon="13.147602">
        <time>1970-01-01T00:00:00+00:00</time>
        <ele>1180.0</ele>
      </trkpt>
      <trkpt lat="49.110325" lon="13.147473">
        <time>1970-01-01T00:00:00+00:00</time>
        <ele>1181.0</ele>
      </trkpt>
      <trkpt lat="49.110446" lon="13.146635">
        <time>1970-01-01T00:00:00+00:00</time>
        <ele>1187.0</ele>
      </trkpt>
      <trkpt lat="49.110229" lon="13.146368">
        <time>1970-01-01T00:00:00+00:00</time>
        <ele>1199.0</ele>
      </trkpt>
      <trkpt lat="49.110166" lon="13.14618">
        <time>1970-01-01T00:00:00+00:00</time>
        <ele>1202.0</ele>
      </trkpt>
      <trkpt lat="49.109525" lon="13.146125">
        <time>1970-01-01T00:00:00+00:00</time>
        <ele>1210.0</ele>
      </trkpt>
      <trkpt lat="49.109371" lon="13.14622">
        <time>1970-01-01T00:00:00+00:00</time>
        <ele>1212.0</ele>
      </trkpt>
      <trkpt lat="49.109204" lon="13.146376">
        <time>1970-01-01T00:00:00+00:00</time>
        <ele>1215.0</ele>
      </trkpt>
      <trkpt lat="49.109107" lon="13.146522">
        <time>1970-01-01T00:00:00+00:00</time>
        <ele>1217.0</ele>
      </trkpt>
      <trkpt lat="49.108888" lon="13.146427">
        <time>1970-01-01T00:00:00+00:00</time>
        <ele>1226.0</ele>
      </trkpt>
      <trkpt lat="49.108805" lon="13.146325">
        <time>1970-01-01T00:00:00+00:00</time>
        <ele>1228.0</ele>
      </trkpt>
      <trkpt lat="49.108679" lon="13.145913">
        <time>1970-01-01T00:00:00+00:00</time>
        <ele>1229.0</ele>
      </trkpt>
      <trkpt lat="49.108651" lon="13.14576">
        <time>1970-01-01T00:00:00+00:00</time>
        <ele>1229.0</ele>
      </trkpt>
      <trkpt lat="49.108581" lon="13.14551">
        <time>1970-01-01T00:00:00+00:00</time>
        <ele>1228.0</ele>
      </trkpt>
      <trkpt lat="49.108578" lon="13.145422">
        <time>1970-01-01T00:00:00+00:00</time>
        <ele>1228.0</ele>
      </trkpt>
      <trkpt lat="49.108449" lon="13.144977">
        <time>1970-01-01T00:00:00+00:00</time>
        <ele>1229.0</ele>
      </trkpt>
      <trkpt lat="49.108455" lon="13.144917">
        <time>1970-01-01T00:00:00+00:00</time>
        <ele>1230.0</ele>
      </trkpt>
      <trkpt lat="49.108509" lon="13.144766">
        <time>1970-01-01T00:00:00+00:00</time>
        <ele>1232.0</ele>
      </trkpt>
      <trkpt lat="49.108615" lon="13.144627">
        <time>1970-01-01T00:00:00+00:00</time>
        <ele>1235.0</ele>
      </trkpt>
      <trkpt lat="49.108666" lon="13.144612">
        <time>1970-01-01T00:00:00+00:00</time>
        <ele>1236.0</ele>
      </trkpt>
      <trkpt lat="49.108982" lon="13.144122">
        <time>1970-01-01T00:00:00+00:00</time>
        <ele>1254.0</ele>
      </trkpt>
      <trkpt lat="49.109135" lon="13.143946">
        <time>1970-01-01T00:00:00+00:00</time>
        <ele>1261.0</ele>
      </trkpt>
      <trkpt lat="49.109266" lon="13.143711">
        <time>1970-01-01T00:00:00+00:00</time>
        <ele>1266.0</ele>
      </trkpt>
      <trkpt lat="49.109354" lon="13.143502">
        <time>1970-01-01T00:00:00+00:00</time>
        <ele>1270.0</ele>
      </trkpt>
      <trkpt lat="49.109713" lon="13.143176">
        <time>1970-01-01T00:00:00+00:00</time>
        <ele>1279.0</ele>
      </trkpt>
      <trkpt lat="49.109822" lon="13.142973">
        <time>1970-01-01T00:00:00+00:00</time>
        <ele>1285.0</ele>
      </trkpt>
      <trkpt lat="49.110161" lon="13.142479">
        <time>1970-01-01T00:00:00+00:00</time>
        <ele>1299.0</ele>
      </trkpt>
      <trkpt lat="49.110708" lon="13.141843">
        <time>1970-01-01T00:00:00+00:00</time>
        <ele>1303.0</ele>
      </trkpt>
      <trkpt lat="49.110857" lon="13.141617">
        <time>1970-01-01T00:00:00+00:00</time>
        <ele>1309.0</ele>
      </trkpt>
      <trkpt lat="49.111017" lon="13.141492">
        <time>1970-01-01T00:00:00+00:00</time>
        <ele>1313.0</ele>
      </trkpt>
      <trkpt lat="49.111213" lon="13.141243">
        <time>1970-01-01T00:00:00+00:00</time>
        <ele>1321.0</ele>
      </trkpt>
      <trkpt lat="49.111372" lon="13.141136">
        <time>1970-01-01T00:00:00+00:00</time>
        <ele>1324.0</ele>
      </trkpt>
      <trkpt lat="49.111486" lon="13.141029">
        <time>1970-01-01T00:00:00+00:00</time>
        <ele>1325.0</ele>
      </trkpt>
      <trkpt lat="49.111717" lon="13.140725">
        <time>1970-01-01T00:00:00+00:00</time>
        <ele>1331.0</ele>
      </trkpt>
      <trkpt lat="49.112345" lon="13.14041">
        <time>1970-01-01T00:00:00+00:00</time>
        <ele>1337.0</ele>
      </trkpt>
      <trkpt lat="49.112445" lon="13.140281">
        <time>1970-01-01T00:00:00+00:00</time>
        <ele>1337.0</ele>
      </trkpt>
      <trkpt lat="49.112615" lon="13.140178">
        <time>1970-01-01T00:00:00+00:00</time>
        <ele>1336.0</ele>
      </trkpt>
      <trkpt lat="49.112789" lon="13.140027">
        <time>1970-01-01T00:00:00+00:00</time>
        <ele>1340.0</ele>
      </trkpt>
      <trkpt lat="49.112801" lon="13.139994">
        <time>1970-01-01T00:00:00+00:00</time>
        <ele>1341.0</ele>
      </trkpt>
      <trkpt lat="49.112793" lon="13.139972">
        <time>1970-01-01T00:00:00+00:00</time>
        <ele>1341.0</ele>
      </trkpt>
      <trkpt lat="49.112646" lon="13.139873">
        <time>1970-01-01T00:00:00+00:00</time>
        <ele>1343.0</ele>
      </trkpt>
      <trkpt lat="49.112681" lon="13.139662">
        <time>1970-01-01T00:00:00+00:00</time>
        <ele>1349.0</ele>
      </trkpt>
      <trkpt lat="49.112744" lon="13.139476">
        <time>1970-01-01T00:00:00+00:00</time>
        <ele>1355.0</ele>
      </trkpt>
      <trkpt lat="49.112784" lon="13.139425">
        <time>1970-01-01T00:00:00+00:00</time>
        <ele>1357.0</ele>
      </trkpt>
      <trkpt lat="49.112819" lon="13.139407">
        <time>1970-01-01T00:00:00+00:00</time>
        <ele>1357.0</ele>
      </trkpt>
      <trkpt lat="49.112869" lon="13.139418">
        <time>1970-01-01T00:00:00+00:00</time>
        <ele>1356.0</ele>
      </trkpt>
      <trkpt lat="49.113047" lon="13.13948">
        <time>1970-01-01T00:00:00+00:00</time>
        <ele>1358.0</ele>
      </trkpt>
      <trkpt lat="49.11317" lon="13.139385">
        <time>1970-01-01T00:00:00+00:00</time>
        <ele>1363.0</ele>
      </trkpt>
      <trkpt lat="49.113194" lon="13.139362">
        <time>1970-01-01T00:00:00+00:00</time>
        <ele>1364.0</ele>
      </trkpt>
      <trkpt lat="49.113309" lon="13.139293">
        <time>1970-01-01T00:00:00+00:00</time>
        <ele>1367.0</ele>
      </trkpt>
      <trkpt lat="49.113466" lon="13.13921">
        <time>1970-01-01T00:00:00+00:00</time>
        <ele>1369.0</ele>
      </trkpt>
      <trkpt lat="49.113466" lon="13.13921">
        <time>1970-01-01T00:00:00+00:00</time>
        <ele>1369.0</ele>
      </trkpt>
      <trkpt lat="49.113309" lon="13.139293">
        <time>1970-01-01T00:00:00+00:00</time>
        <ele>1367.0</ele>
      </trkpt>
      <trkpt lat="49.113194" lon="13.139362">
        <time>1970-01-01T00:00:00+00:00</time>
        <ele>1364.0</ele>
      </trkpt>
      <trkpt lat="49.11317" lon="13.139385">
        <time>1970-01-01T00:00:00+00:00</time>
        <ele>1363.0</ele>
      </trkpt>
      <trkpt lat="49.113047" lon="13.13948">
        <time>1970-01-01T00:00:00+00:00</time>
        <ele>1358.0</ele>
      </trkpt>
      <trkpt lat="49.112869" lon="13.139418">
        <time>1970-01-01T00:00:00+00:00</time>
        <ele>1356.0</ele>
      </trkpt>
      <trkpt lat="49.112819" lon="13.139407">
        <time>1970-01-01T00:00:00+00:00</time>
        <ele>1357.0</ele>
      </trkpt>
      <trkpt lat="49.112784" lon="13.139425">
        <time>1970-01-01T00:00:00+00:00</time>
        <ele>1357.0</ele>
      </trkpt>
      <trkpt lat="49.112744" lon="13.139476">
        <time>1970-01-01T00:00:00+00:00</time>
        <ele>1355.0</ele>
      </trkpt>
      <trkpt lat="49.112681" lon="13.139662">
        <time>1970-01-01T00:00:00+00:00</time>
        <ele>1349.0</ele>
      </trkpt>
      <trkpt lat="49.112646" lon="13.139873">
        <time>1970-01-01T00:00:00+00:00</time>
        <ele>1343.0</ele>
      </trkpt>
      <trkpt lat="49.112793" lon="13.139972">
        <time>1970-01-01T00:00:00+00:00</time>
        <ele>1341.0</ele>
      </trkpt>
      <trkpt lat="49.112801" lon="13.139994">
        <time>1970-01-01T00:00:00+00:00</time>
        <ele>1341.0</ele>
      </trkpt>
      <trkpt lat="49.112789" lon="13.140027">
        <time>1970-01-01T00:00:00+00:00</time>
        <ele>1340.0</ele>
      </trkpt>
      <trkpt lat="49.112615" lon="13.140178">
        <time>1970-01-01T00:00:00+00:00</time>
        <ele>1336.0</ele>
      </trkpt>
      <trkpt lat="49.112445" lon="13.140281">
        <time>1970-01-01T00:00:00+00:00</time>
        <ele>1337.0</ele>
      </trkpt>
      <trkpt lat="49.112345" lon="13.14041">
        <time>1970-01-01T00:00:00+00:00</time>
        <ele>1337.0</ele>
      </trkpt>
      <trkpt lat="49.111717" lon="13.140725">
        <time>1970-01-01T00:00:00+00:00</time>
        <ele>1331.0</ele>
      </trkpt>
      <trkpt lat="49.111486" lon="13.141029">
        <time>1970-01-01T00:00:00+00:00</time>
        <ele>1325.0</ele>
      </trkpt>
      <trkpt lat="49.111372" lon="13.141136">
        <time>1970-01-01T00:00:00+00:00</time>
        <ele>1324.0</ele>
      </trkpt>
      <trkpt lat="49.111213" lon="13.141243">
        <time>1970-01-01T00:00:00+00:00</time>
        <ele>1321.0</ele>
      </trkpt>
      <trkpt lat="49.111017" lon="13.141492">
        <time>1970-01-01T00:00:00+00:00</time>
        <ele>1313.0</ele>
      </trkpt>
      <trkpt lat="49.110857" lon="13.141617">
        <time>1970-01-01T00:00:00+00:00</time>
        <ele>1309.0</ele>
      </trkpt>
      <trkpt lat="49.110708" lon="13.141843">
        <time>1970-01-01T00:00:00+00:00</time>
        <ele>1303.0</ele>
      </trkpt>
      <trkpt lat="49.110161" lon="13.142479">
        <time>1970-01-01T00:00:00+00:00</time>
        <ele>1299.0</ele>
      </trkpt>
      <trkpt lat="49.109822" lon="13.142973">
        <time>1970-01-01T00:00:00+00:00</time>
        <ele>1285.0</ele>
      </trkpt>
      <trkpt lat="49.109713" lon="13.143176">
        <time>1970-01-01T00:00:00+00:00</time>
        <ele>1279.0</ele>
      </trkpt>
      <trkpt lat="49.109354" lon="13.143502">
        <time>1970-01-01T00:00:00+00:00</time>
        <ele>1270.0</ele>
      </trkpt>
      <trkpt lat="49.109266" lon="13.143711">
        <time>1970-01-01T00:00:00+00:00</time>
        <ele>1266.0</ele>
      </trkpt>
      <trkpt lat="49.109135" lon="13.143946">
        <time>1970-01-01T00:00:00+00:00</time>
        <ele>1261.0</ele>
      </trkpt>
      <trkpt lat="49.108982" lon="13.144122">
        <time>1970-01-01T00:00:00+00:00</time>
        <ele>1254.0</ele>
      </trkpt>
      <trkpt lat="49.108666" lon="13.144612">
        <time>1970-01-01T00:00:00+00:00</time>
        <ele>1236.0</ele>
      </trkpt>
      <trkpt lat="49.108615" lon="13.144627">
        <time>1970-01-01T00:00:00+00:00</time>
        <ele>1235.0</ele>
      </trkpt>
      <trkpt lat="49.108509" lon="13.144766">
        <time>1970-01-01T00:00:00+00:00</time>
        <ele>1232.0</ele>
      </trkpt>
      <trkpt lat="49.108455" lon="13.144917">
        <time>1970-01-01T00:00:00+00:00</time>
        <ele>1230.0</ele>
      </trkpt>
      <trkpt lat="49.108449" lon="13.144977">
        <time>1970-01-01T00:00:00+00:00</time>
        <ele>1229.0</ele>
      </trkpt>
      <trkpt lat="49.108578" lon="13.145422">
        <time>1970-01-01T00:00:00+00:00</time>
        <ele>1228.0</ele>
      </trkpt>
      <trkpt lat="49.108581" lon="13.14551">
        <time>1970-01-01T00:00:00+00:00</time>
        <ele>1228.0</ele>
      </trkpt>
      <trkpt lat="49.108651" lon="13.14576">
        <time>1970-01-01T00:00:00+00:00</time>
        <ele>1229.0</ele>
      </trkpt>
      <trkpt lat="49.108679" lon="13.145913">
        <time>1970-01-01T00:00:00+00:00</time>
        <ele>1229.0</ele>
      </trkpt>
      <trkpt lat="49.108805" lon="13.146325">
        <time>1970-01-01T00:00:00+00:00</time>
        <ele>1228.0</ele>
      </trkpt>
      <trkpt lat="49.108888" lon="13.146427">
        <time>1970-01-01T00:00:00+00:00</time>
        <ele>1226.0</ele>
      </trkpt>
      <trkpt lat="49.109107" lon="13.146522">
        <time>1970-01-01T00:00:00+00:00</time>
        <ele>1217.0</ele>
      </trkpt>
      <trkpt lat="49.109204" lon="13.146376">
        <time>1970-01-01T00:00:00+00:00</time>
        <ele>1215.0</ele>
      </trkpt>
      <trkpt lat="49.109371" lon="13.14622">
        <time>1970-01-01T00:00:00+00:00</time>
        <ele>1212.0</ele>
      </trkpt>
      <trkpt lat="49.109525" lon="13.146125">
        <time>1970-01-01T00:00:00+00:00</time>
        <ele>1210.0</ele>
      </trkpt>
      <trkpt lat="49.110166" lon="13.14618">
        <time>1970-01-01T00:00:00+00:00</time>
        <ele>1202.0</ele>
      </trkpt>
      <trkpt lat="49.110229" lon="13.146368">
        <time>1970-01-01T00:00:00+00:00</time>
        <ele>1199.0</ele>
      </trkpt>
      <trkpt lat="49.110446" lon="13.146635">
        <time>1970-01-01T00:00:00+00:00</time>
        <ele>1187.0</ele>
      </trkpt>
      <trkpt lat="49.110325" lon="13.147473">
        <time>1970-01-01T00:00:00+00:00</time>
        <ele>1181.0</ele>
      </trkpt>
      <trkpt lat="49.11032" lon="13.147602">
        <time>1970-01-01T00:00:00+00:00</time>
        <ele>1180.0</ele>
      </trkpt>
      <trkpt lat="49.110246" lon="13.147862">
        <time>1970-01-01T00:00:00+00:00</time>
        <ele>1179.0</ele>
      </trkpt>
      <trkpt lat="49.110229" lon="13.148043">
        <time>1970-01-01T00:00:00+00:00</time>
        <ele>1178.0</ele>
      </trkpt>
      <trkpt lat="49.110227" lon="13.148184">
        <time>1970-01-01T00:00:00+00:00</time>
        <ele>1176.0</ele>
      </trkpt>
      <trkpt lat="49.110292" lon="13.148736">
        <time>1970-01-01T00:00:00+00:00</time>
        <ele>1167.0</ele>
      </trkpt>
      <trkpt lat="49.110281" lon="13.148838">
        <time>1970-01-01T00:00:00+00:00</time>
        <ele>1165.0</ele>
      </trkpt>
      <trkpt lat="49.11015" lon="13.14943">
        <time>1970-01-01T00:00:00+00:00</time>
        <ele>1159.0</ele>
      </trkpt>
      <trkpt lat="49.110015" lon="13.149764">
        <time>1970-01-01T00:00:00+00:00</time>
        <ele>1155.0</ele>
      </trkpt>
      <trkpt lat="49.109952" lon="13.150023">
        <time>1970-01-01T00:00:00+00:00</time>
        <ele>1152.0</ele>
      </trkpt>
      <trkpt lat="49.10994" lon="13.150178">
        <time>1970-01-01T00:00:00+00:00</time>
        <ele>1149.0</ele>
      </trkpt>
      <trkpt lat="49.109855" lon="13.150239">
        <time>1970-01-01T00:00:00+00:00</time>
        <ele>1150.0</ele>
      </trkpt>
      <trkpt lat="49.109805" lon="13.150347">
        <time>1970-01-01T00:00:00+00:00</time>
        <ele>1148.0</ele>
      </trkpt>
      <trkpt lat="49.10944" lon="13.150607">
        <time>1970-01-01T00:00:00+00:00</time>
        <ele>1146.0</ele>
      </trkpt>
      <trkpt lat="49.109321" lon="13.150756">
        <time>1970-01-01T00:00:00+00:00</time>
        <ele>1145.0</ele>
      </trkpt>
      <trkpt lat="49.109151" lon="13.150877">
        <time>1970-01-01T00:00:00+00:00</time>
        <ele>1145.0</ele>
      </trkpt>
      <trkpt lat="49.108895" lon="13.15115">
        <time>1970-01-01T00:00:00+00:00</time>
        <ele>1139.0</ele>
      </trkpt>
      <trkpt lat="49.108748" lon="13.151208">
        <time>1970-01-01T00:00:00+00:00</time>
        <ele>1138.0</ele>
      </trkpt>
      <trkpt lat="49.108462" lon="13.151446">
        <time>1970-01-01T00:00:00+00:00</time>
        <ele>1134.0</ele>
      </trkpt>
      <trkpt lat="49.108379" lon="13.15161">
        <time>1970-01-01T00:00:00+00:00</time>
        <ele>1133.0</ele>
      </trkpt>
      <trkpt lat="49.108278" lon="13.151753">
        <time>1970-01-01T00:00:00+00:00</time>
        <ele>1133.0</ele>
      </trkpt>
      <trkpt lat="49.108178" lon="13.152024">
        <time>1970-01-01T00:00:00+00:00</time>
        <ele>1127.0</ele>
      </trkpt>
      <trkpt lat="49.107678" lon="13.152489">
        <time>1970-01-01T00:00:00+00:00</time>
        <ele>1118.0</ele>
      </trkpt>
      <trkpt lat="49.107621" lon="13.152585">
        <time>1970-01-01T00:00:00+00:00</time>
        <ele>1116.0</ele>
      </trkpt>
      <trkpt lat="49.107317" lon="13.152911">
        <time>1970-01-01T00:00:00+00:00</time>
        <ele>1113.0</ele>
      </trkpt>
      <trkpt lat="49.107054" lon="13.15327">
        <time>1970-01-01T00:00:00+00:00</time>
        <ele>1109.0</ele>
      </trkpt>
      <trkpt lat="49.106803" lon="13.153525">
        <time>1970-01-01T00:00:00+00:00</time>
        <ele>1102.0</ele>
      </trkpt>
      <trkpt lat="49.106585" lon="13.153618">
        <time>1970-01-01T00:00:00+00:00</time>
        <ele>1099.0</ele>
      </trkpt>
      <trkpt lat="49.106263" lon="13.15369">
        <time>1970-01-01T00:00:00+00:00</time>
        <ele>1093.0</ele>
      </trkpt>
      <trkpt lat="49.105908" lon="13.153576">
        <time>1970-01-01T00:00:00+00:00</time>
        <ele>1087.0</ele>
      </trkpt>
      <trkpt lat="49.105545" lon="13.153272">
        <time>1970-01-01T00:00:00+00:00</time>
        <ele>1088.0</ele>
      </trkpt>
      <trkpt lat="49.104928" lon="13.152892">
        <time>1970-01-01T00:00:00+00:00</time>
        <ele>1079.0</ele>
      </trkpt>
      <trkpt lat="49.104576" lon="13.152775">
        <time>1970-01-01T00:00:00+00:00</time>
        <ele>1074.0</ele>
      </trkpt>
      <trkpt lat="49.104233" lon="13.152608">
        <time>1970-01-01T00:00:00+00:00</time>
        <ele>1065.0</ele>
      </trkpt>
      <trkpt lat="49.103962" lon="13.152216">
        <time>1970-01-01T00:00:00+00:00</time>
        <ele>1061.0</ele>
      </trkpt>
      <trkpt lat="49.103804" lon="13.151874">
        <time>1970-01-01T00:00:00+00:00</time>
        <ele>1059.0</ele>
      </trkpt>
      <trkpt lat="49.103686" lon="13.151515">
        <time>1970-01-01T00:00:00+00:00</time>
        <ele>1056.0</ele>
      </trkpt>
      <trkpt lat="49.103507" lon="13.150831">
        <time>1970-01-01T00:00:00+00:00</time>
        <ele>1055.0</ele>
      </trkpt>
      <trkpt lat="49.10338" lon="13.150153">
        <time>1970-01-01T00:00:00+00:00</time>
        <ele>1048.0</ele>
      </trkpt>
      <trkpt lat="49.103212" lon="13.149456">
        <time>1970-01-01T00:00:00+00:00</time>
        <ele>1041.0</ele>
      </trkpt>
      <trkpt lat="49.103132" lon="13.149231">
        <time>1970-01-01T00:00:00+00:00</time>
        <ele>1038.0</ele>
      </trkpt>
      <trkpt lat="49.103007" lon="13.149065">
        <time>1970-01-01T00:00:00+00:00</time>
        <ele>1035.0</ele>
      </trkpt>
      <trkpt lat="49.102907" lon="13.149039">
        <time>1970-01-01T00:00:00+00:00</time>
        <ele>1031.0</ele>
      </trkpt>
      <trkpt lat="49.102798" lon="13.14905">
        <time>1970-01-01T00:00:00+00:00</time>
        <ele>1027.0</ele>
      </trkpt>
      <trkpt lat="49.102662" lon="13.149133">
        <time>1970-01-01T00:00:00+00:00</time>
        <ele>1022.0</ele>
      </trkpt>
      <trkpt lat="49.102569" lon="13.149261">
        <time>1970-01-01T00:00:00+00:00</time>
        <ele>1018.0</ele>
      </trkpt>
      <trkpt lat="49.102309" lon="13.149843">
        <time>1970-01-01T00:00:00+00:00</time>
        <ele>1011.0</ele>
      </trkpt>
      <trkpt lat="49.102098" lon="13.150154">
        <time>1970-01-01T00:00:00+00:00</time>
        <ele>1013.0</ele>
      </trkpt>
      <trkpt lat="49.102018" lon="13.150366">
        <time>1970-01-01T00:00:00+00:00</time>
        <ele>1013.0</ele>
      </trkpt>
      <trkpt lat="49.101901" lon="13.151166">
        <time>1970-01-01T00:00:00+00:00</time>
        <ele>1003.0</ele>
      </trkpt>
      <trkpt lat="49.101849" lon="13.15151">
        <time>1970-01-01T00:00:00+00:00</time>
        <ele>1001.0</ele>
      </trkpt>
      <trkpt lat="49.101742" lon="13.151905">
        <time>1970-01-01T00:00:00+00:00</time>
        <ele>1000.0</ele>
      </trkpt>
      <trkpt lat="49.101485" lon="13.15291">
        <time>1970-01-01T00:00:00+00:00</time>
        <ele>989.0</ele>
      </trkpt>
      <trkpt lat="49.101321" lon="13.153353">
        <time>1970-01-01T00:00:00+00:00</time>
        <ele>987.0</ele>
      </trkpt>
      <trkpt lat="49.101003" lon="13.1541">
        <time>1970-01-01T00:00:00+00:00</time>
        <ele>988.0</ele>
      </trkpt>
      <trkpt lat="49.100843" lon="13.154529">
        <time>1970-01-01T00:00:00+00:00</time>
        <ele>990.0</ele>
      </trkpt>
      <trkpt lat="49.100725" lon="13.155007">
        <time>1970-01-01T00:00:00+00:00</time>
        <ele>988.0</ele>
      </trkpt>
      <trkpt lat="49.100396" lon="13.155866">
        <time>1970-01-01T00:00:00+00:00</time>
        <ele>972.0</ele>
      </trkpt>
      <trkpt lat="49.10021" lon="13.156311">
        <time>1970-01-01T00:00:00+00:00</time>
        <ele>969.0</ele>
      </trkpt>
      <trkpt lat="49.100068" lon="13.156575">
        <time>1970-01-01T00:00:00+00:00</time>
        <ele>970.0</ele>
      </trkpt>
      <trkpt lat="49.099944" lon="13.156745">
        <time>1970-01-01T00:00:00+00:00</time>
        <ele>971.0</ele>
      </trkpt>
      <trkpt lat="49.09955" lon="13.157191">
        <time>1970-01-01T00:00:00+00:00</time>
        <ele>966.0</ele>
      </trkpt>
      <trkpt lat="49.099315" lon="13.158065">
        <time>1970-01-01T00:00:00+00:00</time>
        <ele>959.0</ele>
      </trkpt>
      <trkpt lat="49.099083" lon="13.158798">
        <time>1970-01-01T00:00:00+00:00</time>
        <ele>940.0</ele>
      </trkpt>
      <trkpt lat="49.099085" lon="13.159051">
        <time>1970-01-01T00:00:00+00:00</time>
        <ele>941.0</ele>
      </trkpt>
      <trkpt lat="49.099157" lon="13.159081">
        <time>1970-01-01T00:00:00+00:00</time>
        <ele>944.0</ele>
      </trkpt>
      <trkpt lat="49.099321" lon="13.159221">
        <time>1970-01-01T00:00:00+00:00</time>
        <ele>950.0</ele>
      </trkpt>
      <trkpt lat="49.099411" lon="13.159314">
        <time>1970-01-01T00:00:00+00:00</time>
        <ele>953.0</ele>
      </trkpt>
    </trkseg>
  </trk>
</gpx>
